Regional Weather Roundup
Issued by NWS Newport/Morehead, NC

Current Version | Previous Version | Graphics & Text | Print | Product List | Glossary Off
Versions: 1 2 3 4 5 6 7 8 9 10 11 12 13 14 15 16 17 18 19 20 21 22 23 24 25 26 27 28 29 30 31 32 33 34 35 36 37 38 39 40 41 42 43 44 45 46 47 48 49 50

000
ASUS42 KMHX 210025
RWRMHX
WEATHER ROUNDUP FOR EASTERN NORTH CAROLINA
NATIONAL WEATHER SERVICE NEWPORT/MOREHEAD CITY NC
800 PM EDT SUN MAY 20 2018

NOTE: "FAIR" INDICATES FEW OR NO CLOUDS BELOW 12,000 FEET
WITH NO SIGNIFICANT WEATHER AND/OR OBSTRUCTIONS TO VISIBILITY

NCZ015>017-031-032-045>047-102-103-210100-
NORTH COAST

CITY           SKY/WX    TMP DP  RH WIND       PRES   REMARKS
EDENTON        FAIR      80  74  83 S6        30.09R
ELIZABETH CITY FAIR      78  74  87 SW7       30.07R
KITTY HAWK     FAIR      76  69  77 SW5       30.07S
MANTEO         FAIR      77  70  79 SW16      30.09S

$$

NCZ045>047-081-094-103-104-210100-
CENTRAL COAST

CITY           SKY/WX    TMP DP  RH WIND       PRES   REMARKS
FRISCO         FAIR      74  71  91 SW8       30.13R

$$

NCZ095-097-098-100-101-210100-
SOUTHERN COAST

CITY           SKY/WX    TMP DP  RH WIND       PRES   REMARKS
BEAUFORT       FAIR      74  72  93 SW14      30.14R
CEDAR ISLAND   NOT AVBL
JACKSONVILLE   FAIR      75  72  90 S8        30.13R
PINEY ISLAND   NOT AVBL
WILMINGTON     FAIR      75  68  78 SW8       30.14R


$$

NCZ011>013-027>030-043-044-078>080-089-090>093-098-210100-
COASTAL PLAIN

CITY           SKY/WX    TMP DP  RH WIND       PRES   REMARKS
AHOSKIE        FAIR      74  73  95 CALM      30.08S
CLINTON        FAIR      77  74  90 S5        30.12R
ELIZABETHTOWN  FAIR      76  71  84 S8        30.13R
GOLDSBORO      FAIR     N/A N/A N/A S7        30.10S
GREENVILLE     FAIR      79  72  78 SW10      30.11R
HAVELOCK       NOT AVBL
KENANSVILLE    FAIR      75  72  88 CALM      30.12S
KINSTON        FAIR      77  72  83 S7        30.11S
NEW BERN       FAIR      74  69  85 S9        30.13R
RICHLANDS      FAIR      76  70  82 S9        30.13R
ROCKY MOUNT    FAIR      77  72  84 SW3       30.09R
WASHINGTON     LGT RAIN  75  73  94 CALM      30.11R
WHITEVILLE     FAIR      76  71  83 CALM      30.13R

$$

AMZ130-135-150-152-154-156-158-170-250-252-270-ANZ085-086-088-633-658-670-210100-
MARINE OBSERVATIONS

STATION/POSITION TIME  TEMP    WIND        PRES    WAVE   SWELL
                       AIR SEA DIR/SP/G            HT/PER HT/PER
                 (UTC) (F)     (DEG/KT/KT) (MB)    (FT/S) (FT/S)
CHESAPEAKE LIGHT NOT AVBL
64 E VA BEACH    2350   70 66  200/ 14/ 16 1018.9    5/ 8   3/ 8
DUCK             0000   77 56  200/ 14/ 18 1018.0
2 E DUCK         0000      62                N/A     3/ 8
OREGON INLET     0000   77 77  210/ 20/ 24 1018.9
13E OREGON INLT  2348      64                N/A     5/ 7   2/ 8
HATTERAS CG      0000   74 76  220/ 12/ 16 1020.0
DIAMOND BUOY     0010   76 75  210/ 17/ 21 1020.7
CAPE LOOKOUT     0000          220/  9/ 14 1020.9
BEAUFORT LAB     0000   74 78  220/  6/ 12 1021.0
30 SE NEW RVR IN 0008   75     230/ 12/ 14 1021.1
30 SE NEW RVR IN 0000      76                N/A     6/ 7
27 SE WRIGHTSVLE 0008   74 74  230/ 12/ 17 1021.2
5 SE WRIGHTSVLE  2308   73 71  120/ 10/ 12 1020.4
225 S CAPE HAT   0010      77  160/ 12/ 14 1022.5
41 SE CHARLESTON 0000      74  230/  6/  8 1021.1

$$




USA.gov is the U.S. government's official web portal to all federal, state and local government web resources and services.